Wind_Speed
27 22 22 20 19 22 24 23 22 23 25 25 24 20 20 19 19 18 17 16 15 14 13 13 13 12 12 12 12 11 11 11 10 10 11 11 12 12 12 13 14 13 14 16
29 25 20 20 20 21 23 23 23 24 25 25 26 23 21 19 20 19 18 16 16 15 14 14 14 13 13 13 12 12 12 12 12 11 12 12 12 12 12 13 13 14 15 16
28 25 24 23 22 22 22 23 24 26 26 25 24 22 21 20 19 19 18 18 17 16 16 15 16 15 15 15 14 14 14 14 13 13 13 13 12 12 12 13 14 15 16 17
29 28 27 24 21 21 22 24 26 26 27 26 24 22 23 21 20 20 20 19 18 17 17 17 17 16 16 15 15 15 15 15 14 14 14 14 13 13 14 14 15 15 16 18
30 28 26 24 24 24 25 26 27 28 27 27 26 25 24 23 22 20 19 19 19 18 18 18 18 17 17 16 16 16 16 16 16 15 15 15 15 15 15 16 16 16 17 17
32 30 28 28 27 27 27 28 28 29 27 26 26 24 23 22 22 20 19 19 19 19 19 19 18 18 18 18 18 18 17 17 17 17 16 16 17 17 17 17 17 17 18 18
33 31 30 30 29 27 29 29 29 29 28 28 27 26 23 21 21 20 20 20 20 20 20 20 20 20 20 19 19 19 19 19 19 18 18 18 18 18 19 18 18 17 18 18
35 34 32 33 31 31 31 29 28 28 26 27 26 25 23 22 22 22 22 21 21 21 21 21 21 21 21 21 21 21 21 20 20 20 19 19 19 19 20 19 19 19 19 20
36 37 36 33 32 31 30 29 28 28 27 27 27 25 24 23 23 23 22 22 22 22 22 22 22 21 21 22 22 22 22 21 21 21 20 20 20 20 20 20 20 20 21 21
37 38 35 33 32 32 30 29 28 28 28 27 26 26 25 24 24 23 22 22 22 22 22 22 21 21 21 22 22 22 22 22 21 21 21 21 21 21 21 21 21 21 22 22
38 38 36 34 34 32 29 29 28 28 27 28 28 27 26 26 25 25 24 23 23 23 22 22 21 22 21 21 21 22 22 22 22 21 21 21 21 22 22 22 22 22 23 23
39 38 35 34 33 32 31 29 30 30 29 29 29 28 27 27 27 26 25 24 24 24 24 23 23 22 22 22 22 22 22 22 22 22 22 23 23 23 23 23 23 23 23 24
35 35 34 31 29 30 30 30 29 29 29 29 29 28 28 28 27 27 26 25 25 24 23 23 23 22 22 23 22 23 22 22 22 22 22 23 23 24 24 24 24 24 24 25
31 32 31 30 29 29 29 29 29 29 29 29 28 28 28 27 27 27 26 25 25 24 23 22 22 22 22 22 23 23 23 23 22 22 22 23 23 24 24 24 24 24 24 24
28 31 30 28 29 30 30 30 29 28 28 28 27 27 27 27 27 27 26 25 24 23 23 22 22 22 22 22 22 22 23 23 23 23 23 23 23 23 23 23 23 23 24 25
27 29 28 27 28 29 29 29 29 29 28 28 27 27 27 27 27 26 25 25 24 23 22 22 22 22 22 21 21 22 22 22 22 22 22 22 22 22 23 23 24 24 25 26
27 27 27 28 28 29 28 28 28 27 27 27 27 26 25 25 25 24 23 23 22 22 21 21 21 21 20 20 20 20 20 21 21 21 21 21 21 22 23 24 25 26 27 28
27 26 26 27 28 28 28 28 27 27 27 26 25 24 23 23 23 22 22 22 21 21 21 21 20 20 19 20 20 20 21 21 21 21 22 22 23 24 25 26 27 28 28 29
27 26 26 26 26 26 26 26 27 26 25 24 24 22 21 21 21 21 21 20 20 19 19 19 19 19 19 20 21 21 21 21 21 21 22 23 24 25 26 27 27 28 29 28
26 26 25 25 25 24 24 24 24 24 23 22 22 21 21 20 19 19 18 18 18 18 18 19 19 19 19 19 20 20 20 20 21 22 23 24 25 26 27 27 28 28 28 29
24 24 24 23 23 23 22 21 21 21 22 21 20 20 19 19 18 17 17 17 17 17 17 17 18 19 19 19 20 20 21 21 22 23 24 25 25 26 27 27 27 27 27 28
22 22 21 21 20 20 21 20 20 20 19 19 19 18 17 17 17 17 17 17 17 17 17 18 18 18 18 19 19 20 21 22 22 23 24 24 25 25 26 26 26 26 27 28
20 19 19 18 19 19 19 19 18 18 17 17 17 16 16 16 16 16 17 17 18 17 17 17 17 17 18 19 20 21 21 21 22 23 24 25 26 26 26 27 27 28 29 29
17 16 16 16 18 18 17 16 16 16 16 15 15 15 15 15 15 15 16 16 16 16 16 17 17 18 19 20 20 20 21 22 23 24 25 26 27 27 27 28 28 29 30 30
15 14 14 15 15 15 15 14 13 14 14 14 14 14 14 14 14 14 14 14 15 15 16 17 18 19 19 20 20 21 22 22 23 24 25 26 27 27 27 28 29 29 30 30
14 13 13 14 14 15 15 14 14 14 13 13 13 13 13 13 13 14 14 15 15 16 16 17 18 19 19 20 20 21 21 22 23 24 25 25 26 27 28 28 29 29 29 29
12 13 13 14 14 14 14 13 13 13 13 13 12 12 12 12 13 13 14 15 16 16 17 17 17 18 19 19 20 21 22 22 23 24 25 25 26 27 27 28 28 28 28 29
Wind_Direction
209 215 225 228 225 221 220 220 226 233 242 253 257 258 262 266 268 268 268 269 275 278 277 281 286 289 294 297 302 303 304 304 301 299 297 296 293 290 282 276 274 270 268 261
212 214 217 220 226 226 223 220 226 233 243 248 252 259 259 262 262 266 265 266 272 275 276 281 285 288 294 295 297 301 303 304 301 299 297 296 293 292 289 286 279 274 274 269
212 217 217 222 223 226 226 224 226 232 240 246 246 253 262 264 262 266 266 269 270 272 273 277 282 286 289 292 294 298 300 302 299 300 298 295 294 296 296 291 286 281 277 273
210 214 221 222 223 225 225 227 230 236 243 247 254 253 257 261 262 262 263 266 269 272 274 277 279 282 284 286 289 293 295 298 299 301 300 298 296 296 298 291 285 282 280 276
211 215 220 218 218 221 224 227 230 237 243 244 248 249 253 257 261 262 262 265 268 272 275 275 276 279 281 282 285 289 293 295 297 300 298 297 297 297 296 295 291 289 286 282
213 212 220 221 220 221 225 229 233 236 239 243 246 250 251 252 257 260 262 265 267 270 272 274 275 278 280 281 283 287 290 293 294 296 294 295 296 296 294 294 295 293 290 287
213 214 221 221 220 221 225 229 234 236 237 242 248 250 251 250 255 257 260 264 268 270 272 275 278 278 279 280 283 285 288 290 292 294 293 292 295 296 295 294 294 297 296 291
215 216 222 222 221 223 227 232 236 239 240 244 248 249 249 252 256 259 260 265 269 272 273 275 277 278 277 279 282 284 286 288 289 290 294 292 294 295 297 296 293 294 296 297
220 220 222 223 224 225 228 234 238 241 244 246 247 250 249 251 256 259 262 265 269 272 274 275 276 276 275 277 279 281 283 284 285 288 291 294 294 293 293 294 293 291 291 292
220 222 225 227 227 229 232 237 241 242 242 243 245 248 253 256 257 261 264 266 269 270 272 273 274 275 275 276 278 279 281 282 284 285 288 290 292 292 292 294 296 296 295 294
221 224 226 226 229 231 232 235 238 241 243 244 247 249 252 255 257 260 262 264 267 269 269 272 273 274 275 277 280 281 282 282 283 284 286 289 291 292 293 294 296 295 295 295
223 226 228 227 230 233 233 237 240 242 244 245 247 249 251 254 257 259 262 265 268 270 270 270 272 275 277 279 280 280 281 281 282 283 285 286 288 290 291 292 293 294 294 293
224 227 230 230 229 231 234 237 240 243 244 245 246 248 251 253 255 258 261 264 267 269 270 270 272 274 276 279 280 281 283 283 284 285 286 288 289 291 293 293 293 294 295 295
225 227 227 228 232 234 237 239 242 243 244 245 247 248 250 252 255 258 261 262 266 268 269 270 271 273 275 276 278 280 281 283 284 285 286 287 289 291 293 294 295 295 297 297
226 225 231 233 232 235 237 239 242 243 244 246 247 248 250 253 256 258 260 261 263 266 267 268 270 272 275 278 278 280 280 282 284 285 285 287 289 291 293 295 298 299 299 298
227 229 233 236 235 236 238 240 242 243 244 245 246 248 250 253 256 258 259 260 261 264 265 267 269 273 275 278 279 278 279 281 283 284 285 287 290 292 293 295 297 299 297 297
229 231 234 237 237 237 239 241 241 242 242 243 245 247 250 252 254 255 256 257 260 262 263 265 269 271 273 278 281 280 280 281 284 285 286 287 290 293 294 296 297 297 297 298
229 232 233 236 237 239 240 241 241 241 241 241 243 245 247 249 250 252 255 257 260 262 263 265 267 269 272 276 278 279 281 283 284 284 284 286 289 292 294 295 295 296 297 298
231 232 233 235 237 238 238 240 240 240 240 240 242 243 244 246 249 252 255 256 258 260 263 265 267 270 273 276 278 279 280 282 283 284 286 288 290 293 294 296 297 297 298 299
230 231 232 234 236 235 235 236 237 236 235 236 238 240 243 246 249 250 253 255 258 263 264 265 268 270 274 276 276 278 281 283 284 285 287 289 291 294 295 296 297 298 298 299
225 226 228 231 232 232 232 233 233 232 232 233 236 239 241 244 247 250 254 257 261 265 268 269 270 270 273 276 277 280 283 284 286 288 290 292 293 295 296 297 298 298 300 301
219 222 224 225 226 227 229 230 229 229 230 232 237 239 242 245 249 253 255 257 260 264 267 269 270 272 275 278 281 284 286 288 289 291 293 294 295 296 298 299 299 300 301 303
214 216 218 220 222 223 224 224 226 227 229 233 234 237 242 246 250 254 255 257 259 262 266 270 272 277 281 284 286 287 289 291 292 293 295 296 296 297 298 299 299 300 301 301
209 212 213 216 219 219 221 223 225 226 229 231 234 238 242 245 248 251 254 257 259 263 267 270 274 279 283 286 287 290 292 294 295 296 297 297 297 297 297 298 299 300 301 301
203 207 210 212 214 216 218 218 220 224 228 233 238 241 243 243 246 251 256 260 264 268 272 276 279 283 285 287 289 292 294 296 298 300 300 300 299 298 299 299 299 301 301 301
201 206 206 206 210 214 217 218 221 224 229 233 237 241 244 247 251 256 261 266 269 274 279 281 283 285 287 289 292 294 296 298 300 300 301 301 300 300 301 301 301 302 301 301
199 203 203 207 211 216 219 220 223 226 230 234 242 247 251 254 259 265 270 274 276 278 280 282 286 289 291 293 296 297 298 299 300 301 302 302 302 303 303 303 303 302 302 302
Height
5818 5822 5825 5827 5830 5834 5837 5841 5844 5845 5844 5844 5843 5843 5845 5846 5846 5847 5847 5847 5847 5847 5846 5847 5847 5847 5846 5845 5844 5843 5842 5841 5840 5840 5840 5839 5838 5838 5837 5837 5837 5837 5837 5838
5812 5816 5819 5823 5826 5830 5833 5836 5838 5839 5838 5838 5838 5838 5840 5842 5843 5843 5843 5844 5844 5844 5844 5845 5845 5844 5844 5843 5842 5841 5840 5840 5839 5838 5837 5837 5836 5835 5834 5834 5834 5834 5834 5834
5807 5811 5815 5818 5822 5825 5828 5830 5833 5833 5833 5832 5832 5834 5836 5836 5838 5839 5839 5841 5841 5841 5841 5840 5842 5842 5841 5840 5839 5839 5838 5837 5837 5836 5835 5834 5833 5833 5832 5831 5831 5831 5830 5830
5802 5806 5809 5815 5818 5821 5823 5825 5827 5828 5828 5829 5829 5830 5832 5833 5834 5835 5836 5837 5838 5838 5838 5838 5839 5838 5838 5838 5837 5836 5836 5835 5833 5832 5832 5831 5831 5830 5829 5828 5828 5827 5827 5826
5796 5800 5804 5808 5812 5814 5817 5819 5821 5822 5822 5824 5825 5826 5828 5829 5830 5831 5832 5833 5834 5835 5835 5835 5835 5835 5835 5835 5834 5834 5833 5832 5831 5830 5829 5829 5828 5827 5826 5825 5824 5824 5823 5822
5789 5794 5798 5802 5805 5808 5812 5813 5815 5815 5817 5818 5818 5821 5823 5825 5826 5827 5828 5829 5830 5831 5831 5831 5831 5831 5831 5831 5831 5830 5830 5829 5828 5827 5826 5825 5825 5824 5823 5822 5821 5820 5819 5818
5783 5787 5790 5794 5797 5802 5806 5807 5807 5809 5811 5813 5814 5817 5818 5819 5822 5823 5824 5825 5826 5827 5827 5827 5827 5827 5827 5827 5827 5826 5826 5825 5824 5823 5823 5822 5821 5820 5819 5818 5817 5816 5815 5814
5776 5781 5784 5786 5791 5794 5797 5800 5801 5803 5805 5808 5810 5812 5814 5816 5818 5819 5820 5821 5822 5823 5823 5823 5823 5823 5823 5823 5822 5822 5822 5821 5820 5819 5818 5817 5816 5815 5815 5813 5813 5812 5811 5811
5769 5774 5775 5780 5783 5787 5790 5793 5795 5798 5801 5804 5805 5807 5809 5812 5813 5814 5815 5816 5817 5818 5818 5818 5818 5818 5818 5818 5817 5817 5817 5816 5816 5815 5814 5813 5812 5811 5810 5809 5809 5808 5807 5806
5762 5766 5770 5773 5777 5781 5784 5788 5791 5794 5796 5798 5800 5802 5804 5806 5808 5809 5810 5811 5812 5813 5813 5813 5813 5813 5813 5812 5812 5812 5811 5811 5810 5810 5809 5808 5808 5806 5806 5805 5803 5802 5802 5800
5755 5760 5764 5768 5771 5775 5778 5783 5786 5788 5791 5793 5795 5797 5799 5801 5803 5804 5805 5806 5807 5807 5807 5807 5808 5808 5807 5807 5807 5806 5806 5806 5805 5805 5804 5803 5802 5801 5800 5799 5798 5797 5796 5795
5749 5753 5756 5760 5765 5769 5773 5776 5779 5782 5785 5787 5789 5791 5794 5795 5797 5798 5799 5800 5801 5801 5802 5802 5802 5802 5802 5802 5801 5801 5801 5800 5800 5799 5799 5798 5797 5796 5794 5794 5793 5791 5790 5789
5742 5746 5749 5753 5758 5762 5767 5771 5774 5776 5778 5780 5783 5785 5787 5789 5791 5792 5793 5794 5795 5795 5795 5796 5796 5796 5796 5796 5796 5795 5795 5795 5794 5794 5793 5792 5791 5790 5789 5788 5786 5785 5784 5782
5736 5740 5745 5748 5752 5756 5760 5764 5767 5769 5771 5774 5777 5779 5781 5783 5784 5786 5787 5788 5789 5789 5790 5790 5790 5790 5790 5790 5790 5790 5789 5789 5788 5788 5787 5786 5785 5784 5783 5782 5780 5778 5777 5775
5731 5735 5739 5742 5747 5751 5754 5758 5760 5763 5766 5768 5771 5773 5775 5776 5778 5779 5781 5782 5783 5783 5784 5784 5785 5785 5784 5784 5784 5784 5783 5783 5782 5782 5781 5780 5779 5778 5777 5776 5774 5772 5771 5769
5727 5730 5734 5737 5742 5745 5748 5752 5755 5757 5760 5762 5764 5766 5768 5770 5771 5773 5774 5776 5777 5778 5778 5778 5779 5779 5779 5778 5778 5778 5777 5777 5777 5776 5775 5774 5773 5772 5771 5770 5768 5766 5764 5762
5723 5727 5730 5733 5736 5739 5743 5746 5748 5751 5753 5756 5758 5760 5762 5764 5765 5767 5768 5770 5771 5772 5772 5773 5773 5773 5773 5773 5773 5772 5772 5771 5771 5770 5769 5768 5767 5766 5765 5763 5762 5759 5757 5755
5718 5721 5725 5728 5731 5734 5737 5740 5742 5745 5748 5750 5753 5755 5757 5758 5760 5762 5763 5764 5765 5766 5767 5767 5768 5768 5768 5767 5767 5767 5767 5766 5765 5765 5763 5762 5761 5759 5758 5756 5754 5752 5750 5747
5712 5716 5719 5722 5725 5728 5731 5734 5737 5740 5742 5745 5747 5750 5751 5753 5755 5757 5758 5759 5760 5761 5762 5762 5762 5763 5762 5762 5762 5762 5761 5760 5760 5759 5757 5756 5754 5753 5751 5749 5746 5744 5742 5739
5708 5711 5714 5718 5721 5724 5727 5729 5732 5735 5737 5740 5742 5745 5747 5749 5750 5752 5753 5754 5755 5756 5756 5757 5757 5757 5757 5757 5756 5756 5755 5755 5754 5752 5751 5749 5747 5746 5743 5741 5739 5736 5734 5731
5703 5706 5710 5713 5716 5719 5722 5725 5727 5730 5733 5735 5738 5740 5742 5744 5746 5747 5748 5749 5750 5751 5751 5751 5752 5752 5751 5751 5751 5750 5749 5748 5747 5746 5744 5742 5740 5738 5736 5734 5731 5729 5726 5724
5699 5702 5706 5709 5713 5715 5718 5721 5724 5726 5728 5731 5733 5735 5737 5739 5741 5742 5743 5744 5745 5746 5746 5746 5746 5746 5746 5745 5745 5744 5743 5742 5741 5739 5737 5735 5733 5731 5728 5726 5724 5722 5719 5716
5696 5699 5703 5706 5709 5712 5715 5717 5720 5723 5725 5727 5729 5731 5733 5735 5736 5738 5739 5740 5740 5740 5741 5741 5741 5740 5740 5740 5739 5738 5737 5736 5734 5732 5730 5728 5726 5723 5721 5719 5716 5714 5711 5708
5694 5697 5700 5703 5706 5709 5712 5714 5717 5719 5722 5724 5725 5727 5729 5731 5732 5733 5734 5735 5735 5735 5736 5736 5736 5735 5735 5734 5733 5732 5731 5729 5727 5725 5723 5721 5718 5716 5713 5711 5708 5706 5703 5700
5692 5695 5698 5701 5704 5706 5709 5711 5714 5716 5719 5721 5722 5724 5725 5727 5728 5729 5730 5730 5731 5731 5731 5731 5730 5730 5729 5728 5727 5726 5724 5722 5720 5718 5716 5713 5711 5708 5706 5703 5700 5697 5694 5691
5691 5693 5696 5699 5702 5704 5707 5709 5712 5714 5716 5718 5720 5721 5722 5723 5724 5725 5726 5726 5726 5726 5726 5725 5725 5724 5723 5722 5721 5719 5718 5716 5713 5711 5708 5706 5703 5701 5698 5695 5692 5689 5686 5683
5689 5692 5695 5697 5700 5702 5705 5707 5710 5712 5713 5715 5717 5718 5719 5720 5721 5721 5722 5722 5721 5721 5721 5720 5719 5718 5717 5716 5714 5713 5711 5709 5706 5704 5701 5699 5696 5693 5690 5687 5684 5681 5678 5675